Weather History for Windom, MN

Change the Weather History Date:

Monday, February 13, 2012

  Actual Average Record
Temperature  
Mean Temperature 22 °F -  
Max Temperature 26 °F 28 °F 57 °F (1990)
Min Temperature 19 °F 7 °F -17 °F (1970)
Degree Days  
Heating Degree Days 42    
Moisture  
Dew Point 18 °F    
Average Humidity 81    
Maximum Humidity 100    
Minimum Humidity 54    
Precipitation  
Precipitation 0.00 in - - ()
Sea Level Pressure  
Sea Level Pressure 29.82 in    
Wind  
Wind Speed 8 mph (South)    
Max Wind Speed 16 mph    
Max Gust Speed 20 mph    
Visibility 6 miles    
Events Snow    
Averages and records for this station are not official NWS values.
T = Trace of Precipitation, MM = Missing Value Source: NWS Daily Summary

Daily Weather History Graph

Daily Weather History Graph

Search for Another Location

Airport:

Trip Planner

Search our weather history database for the weather conditions in past years. The results will help you decide how hot, cold, wet, or windy it might be!

Date:

Astronomy

Feb. 13, 2012 Rise Set
Actual Time 7:22 AM CST 5:46 PM CST
Civil Twilight 6:53 AM CST 6:16 PM CST
Nautical Twilight 6:19 AM CST 6:50 PM CST
Astronomical Twilight 5:46 AM CST 7:24 PM CST
Moon 12:00 AM CST (2/13) 10:06 AM CST (2/13)
Length of Visible Light 11h 23m
Length of Day
10h 23m
Waning Gibbous, 61% of the Moon is Illuminated
Feb 13
Waning Gibbous
Feb 14
Last Quarter
Feb 21
New
Feb 29
First Quarter
Mar 8
Full

Hourly Weather History & Observations

Time (CST) Temp. Windchill Dew Point Humidity Pressure Visibility Wind Dir Wind Speed Gust Speed Precip Events Conditions
12:13 AM 19.4 °F 9.5 °F 6.8 °F 58% 30.00 in 10.0 mi SSE 8.1 mph - N/A   Overcast
12:32 AM 19.4 °F 10.4 °F 6.8 °F 58% 29.99 in 10.0 mi SSE 6.9 mph - N/A   Overcast
12:52 AM 19.4 °F 10.4 °F 6.8 °F 58% 29.98 in 10.0 mi SSE 6.9 mph - N/A   Overcast
1:12 AM 21.2 °F 10.9 °F 6.8 °F 54% 29.96 in 10.0 mi SSE 9.2 mph - N/A   Overcast
1:32 AM 21.2 °F 10.9 °F 6.8 °F 54% 29.96 in 10.0 mi SSE 9.2 mph - N/A   Overcast
1:53 AM 21.2 °F 10.9 °F 8.6 °F 58% 29.95 in 10.0 mi SSE 9.2 mph - N/A   Overcast
2:12 AM 21.2 °F 10.9 °F 8.6 °F 58% 29.95 in 10.0 mi SSE 9.2 mph - N/A   Overcast
2:33 AM 21.2 °F 12.6 °F 8.6 °F 58% 29.94 in 10.0 mi SSE 6.9 mph - N/A   Overcast
2:53 AM 21.2 °F 11.7 °F 8.6 °F 58% 29.93 in 10.0 mi SSE 8.1 mph - N/A   Overcast
3:12 AM 21.2 °F 11.7 °F 8.6 °F 58% 29.92 in 10.0 mi SSE 8.1 mph - N/A   Overcast
3:33 AM 21.2 °F 12.6 °F 8.6 °F 58% 29.90 in 10.0 mi SSE 6.9 mph - N/A   Overcast
3:53 AM 23.0 °F 13.1 °F 8.6 °F 54% 29.90 in 10.0 mi SSE 9.2 mph - N/A   Overcast
4:12 AM 23.0 °F 14.7 °F 8.6 °F 54% 29.89 in 10.0 mi SSE 6.9 mph - N/A   Overcast
4:33 AM 23.0 °F 14.7 °F 8.6 °F 54% 29.89 in 10.0 mi SE 6.9 mph - N/A   Overcast
4:52 AM 23.0 °F 13.9 °F 10.4 °F 59% 29.88 in 10.0 mi SSE 8.1 mph - N/A   Overcast
5:12 AM 23.0 °F 14.7 °F 10.4 °F 59% 29.87 in 10.0 mi SSE 6.9 mph - N/A   Overcast
5:33 AM 23.0 °F 14.7 °F 10.4 °F 59% 29.86 in 10.0 mi SSE 6.9 mph - N/A   Overcast
5:52 AM 24.8 °F 16.9 °F 10.4 °F 54% 29.85 in 10.0 mi South 6.9 mph - N/A   Overcast
6:12 AM 24.8 °F 14.0 °F 12.2 °F 59% 29.85 in 10.0 mi South 11.5 mph - N/A   Overcast
6:33 AM 24.8 °F 12.9 °F 15.8 °F 69% 29.84 in 10.0 mi South 13.8 mph - N/A   Overcast
6:52 AM 23.0 °F 11.1 °F 17.6 °F 80% 29.84 in 10.0 mi South 12.7 mph 18.4 mph N/A   Overcast
7:12 AM 23.0 °F 9.6 °F 17.6 °F 80% 29.84 in 10.0 mi South 16.1 mph 19.6 mph N/A   Mostly Cloudy
7:33 AM 23.0 °F 11.1 °F 19.4 °F 86% 29.84 in 10.0 mi South 12.7 mph - N/A   Overcast
7:52 AM 23.0 °F 13.1 °F 19.4 °F 86% 29.84 in 4.0 mi South 9.2 mph - N/A Snow Light Snow
8:12 AM 21.2 °F 12.6 °F 21.2 °F 100% 29.84 in 2.5 mi South 6.9 mph - N/A Snow Light Snow
8:33 AM 21.2 °F 12.6 °F 21.2 °F 100% 29.83 in 2.5 mi South 6.9 mph - N/A Snow Light Snow
8:52 AM 21.2 °F 11.7 °F 21.2 °F 100% 29.82 in 1.8 mi SSE 8.1 mph - N/A Snow Light Snow
9:13 AM 23.0 °F 13.9 °F 21.2 °F 93% 29.82 in 2.0 mi SSE 8.1 mph - N/A Snow Light Snow
9:32 AM 23.0 °F 13.1 °F 21.2 °F 93% 29.82 in 3.0 mi SSE 9.2 mph - N/A Snow Light Snow
9:52 AM 23.0 °F 14.7 °F 21.2 °F 93% 29.81 in 3.0 mi SSE 6.9 mph - N/A   Overcast
10:13 AM 23.0 °F 13.1 °F 21.2 °F 93% 29.80 in 1.8 mi SSE 9.2 mph - N/A Snow Light Snow
10:32 AM 24.8 °F 15.3 °F 21.2 °F 86% 29.80 in 1.5 mi SSE 9.2 mph - N/A   Overcast
10:53 AM 24.8 °F 16.1 °F 23.0 °F 93% 29.79 in 2.0 mi South 8.1 mph - N/A   Overcast
11:12 AM 24.8 °F 15.3 °F 23.0 °F 93% 29.78 in 3.0 mi South 9.2 mph - N/A   Overcast
11:32 AM 24.8 °F 14.6 °F 23.0 °F 93% 29.78 in 1.8 mi South 10.4 mph - N/A Snow Light Snow
11:53 AM 24.8 °F 15.3 °F 23.0 °F 93% 29.77 in 2.0 mi South 9.2 mph - N/A Snow Light Snow
12:12 PM 26.6 °F 17.5 °F 23.0 °F 86% 29.76 in 4.0 mi South 9.2 mph - N/A   Overcast
12:33 PM 26.6 °F 16.2 °F 23.0 °F 86% 29.74 in 10.0 mi South 11.5 mph - N/A   Overcast
12:53 PM 26.6 °F 18.2 °F 23.0 °F 86% 29.74 in 4.0 mi South 8.1 mph - N/A Snow Light Snow
1:12 PM 24.8 °F 15.3 °F 23.0 °F 93% 29.73 in 1.0 mi South 9.2 mph - N/A Snow Light Snow
1:33 PM 26.6 °F 17.5 °F 24.8 °F 93% 29.73 in 0.8 mi South 9.2 mph - N/A Snow Light Snow
1:52 PM 24.8 °F 16.1 °F 24.8 °F 100% 29.72 in 0.8 mi South 8.1 mph - N/A Snow Light Snow
2:12 PM 24.8 °F 15.3 °F 24.8 °F 100% 29.71 in 1.0 mi South 9.2 mph - N/A Snow Light Snow
2:32 PM 24.8 °F 16.1 °F 24.8 °F 100% 29.71 in 1.0 mi South 8.1 mph - N/A Snow Light Snow
2:52 PM 26.6 °F 18.2 °F 24.8 °F 93% 29.71 in 1.2 mi South 8.1 mph - N/A Snow Light Snow
3:13 PM 26.6 °F 21.2 °F 24.8 °F 93% 29.71 in 1.2 mi South 4.6 mph - N/A Snow Light Snow
3:33 PM 26.6 °F 20.0 °F 24.8 °F 93% 29.71 in 1.0 mi South 5.8 mph - N/A Snow Light Snow
3:52 PM 24.8 °F 19.1 °F 24.8 °F 100% 29.71 in 0.8 mi South 4.6 mph - N/A   Overcast
4:13 PM 26.6 °F 21.2 °F 24.8 °F 93% 29.70 in 1.0 mi South 4.6 mph - N/A Snow Light Snow
4:33 PM 24.8 °F 19.1 °F 24.8 °F 100% 29.70 in 1.8 mi South 4.6 mph - N/A Snow Light Snow
4:52 PM 24.8 °F 19.1 °F 24.8 °F 100% 29.70 in 4.0 mi South 4.6 mph - N/A Snow Light Snow
5:13 PM 24.8 °F 17.9 °F 24.8 °F 100% 29.70 in 3.0 mi South 5.8 mph - N/A Snow Light Snow
5:33 PM 24.8 °F 19.1 °F 24.8 °F 100% 29.70 in 3.0 mi South 4.6 mph - N/A Snow Light Snow
5:52 PM 24.8 °F 20.5 °F 24.8 °F 100% 29.70 in 4.0 mi South 3.5 mph - N/A Snow Light Snow
6:13 PM 24.8 °F 19.1 °F 24.8 °F 100% 29.70 in 3.0 mi South 4.6 mph - N/A Snow Light Snow
6:32 PM 24.8 °F 19.1 °F 24.8 °F 100% 29.70 in 4.0 mi South 4.6 mph - N/A Snow Light Snow
6:53 PM 24.8 °F 20.5 °F 24.8 °F 100% 29.70 in 5.0 mi South 3.5 mph - N/A Snow Light Snow
7:12 PM 24.8 °F 20.5 °F 24.8 °F 100% 29.70 in 7.0 mi South 3.5 mph - N/A   Overcast
7:32 PM 24.8 °F 20.5 °F 24.8 °F 100% 29.70 in 7.0 mi South 3.5 mph - N/A Snow Light Snow
7:53 PM 24.8 °F - 24.8 °F 100% 29.70 in 7.0 mi Calm Calm - N/A   Overcast
8:12 PM 23.0 °F 18.4 °F 21.2 °F 93% 29.70 in 7.0 mi South 3.5 mph - N/A   Overcast
8:32 PM 21.2 °F 16.4 °F 21.2 °F 100% 29.70 in 5.0 mi SSW 3.5 mph - N/A   Overcast
8:53 PM 21.2 °F 16.4 °F 21.2 °F 100% 29.70 in 2.5 mi SSW 3.5 mph - N/A   Mostly Cloudy
9:12 PM 21.2 °F 14.9 °F 21.2 °F 100% 29.70 in 0.8 mi SSW 4.6 mph - N/A   Mostly Cloudy
9:32 PM 15.8 °F 8.6 °F 15.8 °F 100% 29.70 in 0.2 mi SW 4.6 mph - N/A Fog Light Freezing Fog
9:53 PM 14.0 °F - 12.2 °F 93% 29.70 in 0.2 mi Calm Calm - N/A Fog Light Freezing Fog
10:12 PM 15.8 °F - 14.0 °F 93% 29.70 in 0.2 mi Calm Calm - N/A Fog Light Freezing Fog
10:32 PM 17.6 °F 12.3 °F 17.6 °F 100% 29.70 in 0.2 mi WSW 3.5 mph - N/A Fog Light Freezing Fog
10:53 PM 19.4 °F 14.3 °F 19.4 °F 100% 29.70 in 1.2 mi SW 3.5 mph - N/A   Overcast
11:12 PM 19.4 °F 11.5 °F 19.4 °F 100% 29.70 in 1.5 mi SW 5.8 mph - N/A   Overcast
11:53 PM 17.6 °F 10.7 °F - N/A% 29.70 in 0.5 mi SW 4.6 mph - N/A Fog Light Freezing Fog